Content
SEND FEEDBACK

Daily
Averages
Monthly
Summary
United Kingdom

ROCHESTER, ENGLAND


Home > Europe > United Kingdom > England
Elevation: 405 feet     Latitude: 51 21N     Longitude: 000 30E

WEATHER
 
SELECT A DAY
Number of Records: 216,009;   Date Range: 7/1/96 - 11/27/14
 
SHARE

PRINT THIS DATA

[ ← Previous Day ]
WEATHER ALMANAC - OCTOBER 15, 2013
[ Next Day → ]
[ °C ]   °F
Weather ElementAverageHighLow
Temperature50.4 °F55.4 °F (2:50 pm)46.4 °F (10:20 pm)
Dewpoint46.4 °F48.2 °F (1:50 pm)44.6 °F (5:20 am)
Humidity86.1 %94 % (7:50 pm)77 % (2:20 pm)
Barometer29.81 in29.95 in (11:50 pm)29.71 in (12:50 am)
Wind Speed8.1 mph12.7 mph (7:50 am)
Weather ElementAverage
Visibility5.9 mi
Wind DirectionWNW (282.6 °)

Weather ElementTotal
Precipitation---
Heating Degree Days14.1 (Base 65)
Growing Degree Days0.9 (Base 50)
Averaged from 42 records on October 15, 2013
WEATHER CONDITIONS BREAKOUT
WIND DIRECTION BREAKOUT
WEATHER BY HOUR - OCTOBER 15, 2013
[ °C ]   °F
Local TimeTemperatureDewpointHumidityBarometerVisibilityWind DirectionWind SpeedGust SpeedPrecipitationEventsConditions
12:50 AM48.2 °F46.4 °F93 %29.71 in5.6 miWest (270°)3.5 mphPartly Cloudy
1:50 AM48.2 °F46.4 °F93 %29.71 in5.6 miWest (280°)3.5 mphPartly Cloudy
2:50 AM48.2 °F46.4 °F93 %29.71 in5.0 miWNW (290°)4.6 mphPartly Cloudy
3:50 AM48.2 °F46.4 °F93 %29.74 in6.2 miWNW (290°)5.8 mphPartly Cloudy
4:50 AM48.2 °F46.4 °F93 %29.74 in6.2 miWest (270°)8.1 mphScattered Clouds
5:20 AM48.2 °F44.6 °F87 %29.74 in6.2 miWest (270°)10.4 mphMostly Cloudy
5:50 AM48.2 °F44.6 °F87 %29.77 in6.2 miWest (260°)10.4 mphMostly Cloudy
6:20 AM48.2 °F44.6 °F87 %29.77 in5.6 miWest (260°)10.4 mphMostly Cloudy
6:50 AM48.2 °F44.6 °F87 %29.77 in5.6 miWest (260°)9.2 mphMostly Cloudy
7:20 AM48.2 °F44.6 °F87 %29.77 in5.6 miWSW (250°)10.4 mphOvercast
7:50 AM48.2 °F44.6 °F87 %29.77 in5.0 miWSW (250°)12.7 mphOvercast
8:20 AM48.2 °F44.6 °F87 %29.77 in5.0 miWSW (250°)11.5 mphMostly Cloudy
8:50 AM50.0 °F44.6 °F82 %29.77 in6.2 miWest (260°)9.2 mphMostly Cloudy
9:20 AM50.0 °F46.4 °F87 %29.77 in5.6 miWest (260°)9.2 mphMostly Cloudy
9:50 AM50.0 °F44.6 °F82 %29.77 in6.2 miWest (270°)9.2 mphScattered Clouds
10:20 AM51.8 °F46.4 °F82 %29.80 in6.2 miWest (270°)11.5 mphMostly Cloudy
10:50 AM50.0 °F46.4 °F87 %29.80 in6.2 miWest (270°)9.2 mphMostly Cloudy
11:20 AM50.0 °F46.4 °F87 %29.80 in6.2 miWest (270°)9.2 mphMostly Cloudy
11:50 AM51.8 °F46.4 °F82 %29.80 in6.2 miWest (260°)10.4 mphMostly Cloudy
12:20 PM50.0 °F44.6 °F82 %29.80 in6.2 miWest (270°)10.4 mphMostly Cloudy
12:50 PM51.8 °F46.4 °F82 %29.80 in6.2 miWest (260°)11.5 mphMostly Cloudy
1:20 PM51.8 °F46.4 °F82 %29.80 in6.2 miWest (280°)10.4 mphMostly Cloudy
1:50 PM53.6 °F48.2 °F82 %29.80 in6.2 miWest (280°)12.7 mphScattered Clouds
2:20 PM53.6 °F46.4 °F77 %29.80 in6.2 miWNW (290°)10.4 mphPartly Cloudy
2:50 PM55.4 °F48.2 °F77 %29.80 in6.2 miWNW (290°)11.5 mphPartly Cloudy
3:20 PM53.6 °F48.2 °F82 %29.80 in6.2 miWNW (290°)9.2 mphPartly Cloudy
3:50 PM53.6 °F48.2 °F82 %29.80 in6.2 miWNW (290°)9.2 mphPartly Cloudy
4:20 PM55.4 °F48.2 °F77 %29.83 in6.2 miWNW (290°)8.1 mphPartly Cloudy
4:50 PM53.6 °F48.2 °F82 %29.83 in6.2 miWNW (290°)9.2 mphPartly Cloudy
5:20 PM53.6 °F48.2 °F82 %29.83 inWNW (290°)8.1 mphClear
5:50 PM53.6 °F48.2 °F82 %29.83 inWNW (300°)8.1 mphClear
6:20 PM53.6 °F48.2 °F82 %29.86 inWNW (290°)6.9 mphClear
6:50 PM53.6 °F48.2 °F82 %29.86 in6.2 miNW (310°)8.1 mphPartly Cloudy
7:20 PM51.8 °F48.2 °F88 %29.86 in6.2 miWNW (300°)6.9 mphPartly Cloudy
7:50 PM50.0 °F48.2 °F94 %29.89 inWNW (300°)4.6 mphClear
8:20 PM50.0 °F46.4 °F87 %29.89 inNW (320°)4.6 mphClear
8:50 PM50.0 °F46.4 °F87 %29.89 inNW (320°)3.5 mphClear
9:20 PM48.2 °F46.4 °F93 %29.92 inWNW (290°)3.5 mphClear
9:50 PM48.2 °F46.4 °F93 %29.92 inNW (310°)3.5 mphClear
10:20 PM46.4 °F44.6 °F93 %29.92 inNNW (340°)4.6 mphClear
10:50 PM48.2 °F46.4 °F93 %29.92 inNW (310°)3.5 mphClear
11:50 PM46.4 °F44.6 °F93 %29.95 in4.3 miWNW (300°)3.5 mph
Hourly data recorded from EGMC, located miles away from Rochester, England







STORIES FROM OUR PARTNERS